Location: Austin
(30.3000°N, 97.7500°W)
Time: 03:09:36
(UTC-05:00)

Cosmos 1802 Rocket - Pass Details

Date: 18 March 2023
Orbit: 954 x 1011 km, 82.9° (Epoch: 01 April)

Event Time Altitude Azimuth Distance (km) Brightness Sun altitude
Rises 21:09:27 0° 2° (N) 3,665 7.1 -19.8°
Reaches altitude 10° 21:12:05 10° 9° (N) 2,723 6.4 -20.3°
Maximum altitude 21:18:02 45° 81° (E) 1,307 4.2 -21.6°
Enters shadow 21:19:12 41° 111° (ESE) 1,393 4.3 -21.8°
